Cosmos 2151 Rocket - Orbit

View from above orbital plane
View from above orbital plane
View from above satellite
View from above satellite

Ground track
Ground track

The orbit data is extracted from the following two-line orbital elements,

1 21423U 91042B   13169.21199228  .00000199  00000-0  23933-4 0  4181
2 21423 082.4943 245.1248 0017197 355.5342 059.0521 14.78911650186731
Epoch (UTC): 18 June 2013 05:05:16
Eccentricity: 0.0017197
inclination: 82.4943°
perigee height: 621 km
apogee height: 645 km
right ascension of ascending node: 245.1248°
argument of perigee: 355.5342°
revolutions per day: 14.78911650
mean anomaly at epoch: 59.0521°
orbit number at epoch: 18673

The dashed part of the orbit path shows where the satellite is in the earth's shadow,  

Developed and maintained by Chris Peat, Heavens-Above GmbH. Please read the updated FAQ before sending e-mail. Imprint. DLR